{"data":{"norad_id":66069,"epoch":"2026-09-20T23:10:32.316384Z","epoch_age_seconds":62762,"freshness":"FRESH","line1":"1 66069U 25235M   26263.96565181  .00015847  00000+0  47929-3 0  9992","line2":"2 66069  53.1593  57.1999 0001038  85.6959 274.4162 15.34390585 52836","mean_motion":15.34390585,"eccentricity":0.0001038,"inclination_deg":53.1593,"raan_deg":57.1999,"arg_perigee_deg":85.6959,"mean_anomaly_deg":274.4162,"bstar":0.00047929,"rev_number":5283,"period_min":93.848333929917,"perigee_km":462.02114159269,"apogee_km":463.44130583594,"semimajor_km":6840.8682237143,"source":"CELESTRAK","updated_at":"2026-09-21T09:00:35.796016Z"}}